Погода в Токмаке

Погода в Токмаке : погода сейчас, прогноз погоды и архив. Всё, что Вы хотите узнать о погоде в Токмаке!

Поиск расширенной информации на нашем сайте:

Другие новости

Новости СМИ2

Главная страница сайта

Новости сайта

02.10.2013

Напоминаем, что на нашем новом сайте вы можете получить высокодетализированные прогнозы погоды по пунктам России, СНГ и мира (включающие важные для авиации метеовеличины, такие как направление и скорость ветра, видимость, явления погоды, количество и форма облачности, нижняя и верхняя граница облачности), а также ознакомиться с разнообразными материалами по авиационной метеорологии и подборкой полезных ссылок на эту тему.

Сайт Метеоцентр.Азия посвящён разработке технологий оптимизации авиаметеорологического обслуживания, включая проектирование и перспективное создание нескольких автоматизированных авиаметеорологических систем:
- система выпуска высокодетальных прогностических карт явлений погоды для нижнего воздушного пространства по России и ближнему зарубежью;
- система верификации прогнозов TAF (выпускаемых синоптиками официальных АМСГ РФ и ближнего зарубежья) и AUTOTAF (выпускаемых сайтом Метеоцентр.Азия) - выявление ошибок, онлайн-сопоставление с фактической погодой METAR, автоматическое внесение коррективов в прогнозы при резком отклонении фактической погоды от прогноза, подсчёт оправдываемости прогнозов по элементам и в целом;
- система обработки, анализа и отображения авиаметеорологической информации для применения провайдерами метеорологической информации.


Погода в Токмаке - сегодня

Время (UTC), дата Ветер
(°,м/с) 
Видим.   Явления Облачность Т
(°С)
Тd
(°С)
f(%) Тe
(°С)
Pmin
(гПа)
dP
(гПа)
Po
(мм)
O2
(г/м3)
Тmin Tmax R s Состояние
почвы
12 23.04.17 320 (СЗ) 20000 м    ясно 
+21.6 +4.5 33 +22  1019.1  0.5  696  259           
18 23.04.17 090 (В) н/о    3/0 верхняя 
[Ci fib]
+12.6 +7.7 72 +12  1023.2  -0.2  697  267    +22.7       
21 23.04.17 090 (В) н/о    ясно 
+12.2 +5.3 63 +13  1020.9  -2.4  695  267           
00 24.04.17 070 (В) 20000 м    ясно 
+8.8 +3.2 68 +10  1023.8  1.6  696  271           
06 24.04.17 320 (СЗ) 20000 м    ясно 
+22 +4.5 32 +22  1017.3  -1.3  695  258  +8.6         
09 24.04.17 250 (З) 20000 м    ясно 
+24.4 +3 25 +24  1015.1  -1.3  694  256           
12 24.04.17 270 (З) 20000 м    ясно 
+23.6 +4.1 28 +24  1015.3  694  257           
15 24.04.17 тихо ()   н/о    ясно 
+16.4 +6.7 53 +16  1017.9  0.2  694  263    +25.1       
18 24.04.17 090 (В) н/о    ясно 
+1.2 +5.4 100 +2  1016.2  -0.9  694  277    +25.1       
21 24.04.17 090 (В) н/о    ясно 
+15.4 +2.7 42 +15  1014.6  -1.8  692  263           
00 25.04.17 070 (В) 20000 м    ясно 
+16.2 +0.2 34 +16  1012.8  -0.2  692  263           
03 25.04.17 110 (В) 20000 м    ясно 
+21.3 +2.1 28 +21  1012.7  -0.2  692  258           
06 25.04.17 070 (В) 20000 м    ясно 
+27 +5.6 26 +27  1009.8  -1.1  691  252  +12         
09 25.04.17 090 (В) 20000 м    ясно 
+30 +4.5 20 +30  1007.9  -1.3  690  250           
12 25.04.17 070 (В) 20000 м    ясно 
+29.6 +3.4 19 +30  1007.3  -0.4  690  250           
15 25.04.17 тихо ()   н/о    ясно 
+20.9 +4.1 33 +21  1010.9  0.8  690  258    +30.6       
18 25.04.17 070 (В) н/о    ясно 
+15.7 +1.3 38 +16  1013.9  1.1  691  263    +30.6       
21 25.04.17 070 (В) н/о    ясно 
+15.8 +1.5 38 +16  1013.2  -0.5  691  263           
00 26.04.17 050 (СВ) н/о    ясно 
+15.7 +0.4 35 +16  1013.4  0.1  691  263           
06 26.04.17 250 (З) 20000 м    ясно 
+27.8 +3.8 21 +28  1009.3  -0.3  691  252  +15.4         
09 26.04.17 270 (З) 20000 м    ясно 
+28.5 +4.3 21 +29  1009.2  0.1  691  251           
12 26.04.17 250 (З) 20000 м    ясно 
+27.4 +6.2 26 +27  1009.7  0.3  691  252           
15 26.04.17 тихо ()   н/о    ясно 
+20.3 +11 55 +25  1013.5  1.5  692  257    +29.4       
18 26.04.17 070 (В) н/о    ясно 
+16 +10.3 69 +20  1016  693  262    +29.4       
21 26.04.17 070 (В) н/о    ясно 
+14.8 +8.5 66 +16  1017.3  0.7  693  263           
Время (UTC), дата Ветер
(°,м/с) 
Видим.   Явления Облачность Т
(°С)
Тd
(°С)
f(%) Тe
(°С)
Pmin
(гПа)
dP
(гПа)
Po
(мм)
O2
(г/м3)
Тmin Tmax R s Состояние
почвы

Для получения пояснительной информации подведите курсор к названию столбца.

ПОГОДА в Токмаке - архив

Всё, что Вы хотите узнать о погоде в Токмаке - удобно и подробно!

Выберите нужную дату (начиная с 1 января 2015* года) и нажмите кнопку "Найти".
Будут отображены архивные сводки погоды по пункту Токмак, начиная с указанной даты.


Отображать данные в формате CSV (для использования в таблицах Excel)


Внимание! Наш архив погоды предназначен исключительно для личного некоммерческого использования в познавательных целях. Если Вам необходимы официальные справки о состоянии погоды (для производственных, юридических, коммерческих и т.п. целей), обращайтесь в органы Росгидромета.

*Примечание: данная дата относится к архиву по метеостанциям СССР (Россия, СНГ, Балтия).
Архив по метеостанциям Зарубежной Европы и Азии (кроме Китая) хранится 10 дней, по другим регионам земного шара (Китай, Африка, Америка, Австралия, Океания) - 1 день.

Токмак - район местоположения метеостанции


Название, широта, долгота, высота метеостанции:
Токмак 42.8°ш. 75.3°д. 817 м над ур. моря [Кыргызстан]

Дополнительная информация

В oтличие oт бoльшинства пoгoдных сайтoв мы публикуем пoдрoбную метеoинфoрмацию в детальнoм прoфессиoнальнoм фoрмате.

Характеристики температуры и влажнoсти вoздуха измеряются на высoте 2 м в тени вдали oт зданий и деревьев.
Скoрoсть ветра измеряется на высoте 10 м (на урoвне рoста челoвека скoрoсть ветра ниже в 1.5-2 раза). Если метеoстанция нахoдится в гoрoде или в лесу, тo скoрoсть ветра занижена на 2-4 м/с пo сравнению с oткрытым местoм. Скoрoсть ветра над акватoриями крупных рек и oзёр, а также на вершинах хoлмoв на 2-5 м/с выше, чем в oбычных услoвиях.
Атмoсфернoе давление в разных тoчках местнoсти мoжет значительнo oтличаться oт давления на метеoстанции, в зависимoсти oт услoвий рельефа (при пoдъёме на 10 м давление пoнижается примернo на 1 мм рт.ст.).